Probability
94 97 100 100 100 100 100 100 100 100 100 100 100 97 97 97 97 90 87 87 87 97 94 94 90 87 84 87 90 94 90 94 97 100 100 100 100 97 97 97 97 94 100
97 97 100 100 100 100 100 100 100 100 100 100 100 100 97 97 97 90 87 87 90 94 90 90 94 94 94 90 94 94 94 94 100 100 100 100 100 97 97 97 97 94 97
97 97 100 100 100 100 100 100 100 100 100 100 100 100 97 97 97 97 94 94 94 97 94 87 90 94 94 97 97 97 97 94 100 100 100 84 94 100 100 100 100 97 97
97 97 100 100 100 100 100 100 100 100 100 100 100 97 97 97 97 94 97 94 94 87 90 90 87 90 94 94 90 94 94 90 97 97 97 71 81 97 100 100 100 97 100
97 100 100 100 100 100 100 100 100 100 100 100 100 100 97 97 97 90 94 94 94 90 84 81 84 90 94 94 94 90 90 97 97 100 97 94 94 100 100 100 100 97 100
100 100 100 100 100 100 100 100 100 100 100 100 100 97 97 97 97 97 97 97 94 87 84 81 81 87 90 94 94 97 94 94 97 100 97 94 97 100 100 100 97 97 100
100 100 100 100 100 100 100 100 100 100 100 100 100 97 97 97 97 94 97 94 94 94 90 81 81 81 84 94 90 90 97 97 100 97 97 100 100 100 100 100 100 97 100
100 100 100 100 100 100 100 100 100 100 100 100 97 97 97 100 97 97 100 94 84 87 90 87 84 81 84 87 94 90 94 94 90 74 87 100 100 100 100 100 100 100 100
100 100 100 100 100 100 100 100 100 100 100 100 100 100 97 100 100 100 97 100 97 94 97 87 87 84 87 87 87 90 94 97 87 87 77 97 100 100 100 100 100 100 100
100 100 100 100 100 100 100 100 100 100 100 100 100 97 97 97 97 97 90 97 94 97 90 90 87 97 94 94 90 90 90 94 77 61 84 97 100 100 100 100 100 100 100
100 100 100 100 100 100 100 100 100 100 100 100 97 97 97 97 97 94 94 94 97 97 94 90 87 87 90 90 90 90 90 84 39 52 84 97 100 100 100 100 100 100 100
100 100 100 100 100 100 100 100 100 100 100 100 100 100 100 100 100 94 94 94 97 97 97 100 97 94 94 90 90 90 87 74 39 42 94 97 100 100 100 100 100 100 100
97 100 100 97 97 94 100 97 97 94 94 90 94 90 97 94 94 90 87 90 97 97 100 100 97 90 90 81 87 90 77 39 35 29 97 100 100 100 100 100 100 100 100
94 94 90 90 94 94 94 94 97 94 94 94 90 90 90 87 87 90 90 90 90 94 94 97 100 94 87 81 77 77 77 48 32 55 87 100 97 97 100 100 100 100 100
87 87 90 87 90 90 90 87 84 90 74 87 87 90 94 87 87 84 81 84 84 87 87 87 84 84 87 87 74 71 71 68 52 65 81 90 94 97 100 100 100 100 100
84 84 84 84 84 84 84 87 87 84 84 71 81 77 94 90 81 84 84 84 87 87 84 84 68 65 68 74 68 58 65 58 48 61 68 84 97 100 100 100 100 100 100
81 77 77 81 81 84 87 84 77 68 65 71 77 74 65 68 71 84 87 87 90 87 87 74 61 61 55 45 55 45 39 45 48 58 61 71 84 100 100 100 100 100 100
77 81 81 55 77 81 84 87 71 58 61 55 55 61 55 52 58 71 71 68 58 58 58 48 42 42 32 32 52 45 39 45 42 45 58 61 68 55 97 100 100 100 100
74 81 77 77 74 81 77 71 74 65 68 52 45 35 29 26 23 39 39 52 45 42 29 16 26 39 26 29 39 39 35 39 45 42 42 48 61 68 68 90 100 100 100
74 84 87 87 84 87 81 84 81 61 52 48 48 45 19 16 23 29 29 29 39 42 42 26 26 26 32 29 10 10 19 23 35 32 32 32 35 42 42 42 68 90 100
68 74 77 77 84 81 84 77 61 52 39 32 35 32 23 19 19 26 23 29 29 26 29 29 26 19 23 23 19 13 19 23 19 19 32 29 32 35 32 48 55 61 65
61 74 84 81 71 68 71 68 74 45 32 29 35 29 13 13 16 10 29 19 26 26 23 16 19 16 16 16 16 16 3 13 16 10 19 19 16 32 39 32 48 55 55
61 71 55 68 74 61 52 52 45 45 35 39 32 32 23 13 13 13 13 16 26 23 19 19 13 10 13 16 16 6 3 3 6 13 6 13 23 19 26 29 35 48 45
55 58 68 65 55 48 45 45 42 39 35 26 32 32 19 16 16 16 16 16 16 16 19 10 10 6 6 3 3 3 3 3 0 0 3 3 13 10 19 3 16 32 39
35 55 58 58 52 45 42 35 32 35 29 29 29 29 29 29 29 16 16 16 23 16 16 10 6 6 6 3 3 3 3 0 0 0 0 0 0 6 13 16 6 23 29
29 39 45 55 52 42 39 29 32 32 32 32 32 29 26 29 26 23 13 19 13 10 10 10 10 6 6 6 3 3 3 0 3 0 0 0 0 0 0 10 6 13 19
Height
5909 5908 5907 5907 5907 5907 5906 5906 5906 5905 5905 5904 5903 5903 5902 5901 5901 5900 5899 5899 5899 5898 5898 5898 5898 5897 5897 5897 5897 5897 5896 5896 5896 5896 5896 5896 5897 5897 5897 5898 5898 5899 5900
5908 5907 5907 5906 5906 5906 5906 5905 5905 5905 5904 5904 5903 5902 5902 5901 5901 5900 5900 5899 5899 5899 5898 5898 5898 5898 5898 5897 5897 5897 5897 5897 5897 5897 5897 5897 5898 5898 5899 5899 5900 5901 5902
5907 5907 5906 5906 5905 5905 5905 5904 5904 5904 5903 5903 5902 5902 5901 5901 5900 5900 5900 5899 5899 5899 5898 5898 5898 5898 5898 5898 5898 5898 5898 5897 5898 5898 5898 5898 5899 5899 5900 5900 5901 5902 5903
5907 5906 5906 5905 5905 5904 5904 5903 5903 5903 5902 5902 5902 5901 5901 5900 5900 5899 5899 5899 5898 5898 5898 5898 5898 5898 5898 5898 5898 5898 5898 5898 5898 5898 5899 5899 5900 5900 5900 5901 5902 5903 5904
5906 5905 5904 5904 5904 5903 5903 5902 5902 5902 5901 5901 5900 5900 5900 5899 5899 5898 5898 5898 5898 5897 5897 5897 5897 5897 5897 5897 5897 5898 5898 5898 5899 5899 5899 5900 5900 5901 5901 5902 5903 5904 5905
5905 5904 5903 5903 5903 5902 5902 5901 5901 5900 5900 5899 5899 5898 5898 5898 5897 5897 5897 5897 5896 5896 5896 5896 5896 5896 5896 5896 5897 5897 5897 5898 5898 5899 5899 5900 5900 5901 5902 5903 5904 5905 5906
5904 5903 5902 5902 5901 5901 5900 5900 5899 5898 5898 5898 5897 5897 5896 5896 5895 5895 5895 5895 5894 5894 5894 5894 5894 5895 5895 5895 5895 5896 5896 5897 5898 5898 5899 5900 5900 5901 5902 5903 5904 5905 5906
5902 5901 5901 5900 5899 5899 5898 5898 5897 5896 5896 5895 5895 5894 5894 5893 5893 5892 5892 5892 5892 5892 5892 5892 5892 5892 5893 5893 5894 5894 5895 5896 5897 5898 5898 5899 5900 5901 5902 5903 5904 5905 5907
5900 5899 5899 5898 5897 5897 5896 5896 5895 5894 5893 5893 5892 5892 5891 5891 5890 5890 5889 5889 5889 5889 5889 5889 5889 5890 5890 5891 5892 5892 5893 5894 5895 5896 5897 5898 5899 5900 5901 5902 5904 5905 5907
5897 5897 5896 5895 5895 5894 5894 5893 5892 5891 5890 5890 5889 5888 5888 5887 5887 5886 5886 5886 5886 5886 5886 5886 5886 5887 5887 5888 5889 5889 5890 5891 5892 5894 5896 5896 5897 5899 5900 5901 5903 5904 5906
5893 5894 5893 5892 5891 5891 5890 5889 5888 5887 5887 5886 5885 5884 5883 5883 5882 5882 5881 5881 5881 5882 5882 5882 5883 5883 5884 5885 5885 5886 5887 5888 5889 5891 5893 5894 5895 5896 5898 5900 5901 5903 5905
5890 5890 5890 5889 5887 5887 5886 5885 5884 5883 5882 5881 5881 5879 5878 5878 5877 5877 5876 5876 5876 5877 5877 5878 5878 5879 5880 5881 5882 5882 5883 5884 5886 5888 5890 5891 5892 5894 5896 5898 5900 5901 5903
5887 5887 5886 5885 5883 5882 5882 5880 5880 5879 5878 5877 5875 5874 5873 5872 5872 5872 5872 5871 5871 5872 5873 5873 5873 5874 5875 5876 5878 5878 5879 5880 5882 5884 5885 5887 5888 5890 5892 5895 5897 5899 5901
5883 5883 5882 5880 5879 5878 5877 5876 5875 5874 5873 5872 5870 5868 5867 5867 5867 5866 5866 5867 5867 5868 5868 5868 5868 5869 5870 5871 5873 5874 5875 5876 5877 5879 5881 5882 5884 5887 5889 5891 5894 5896 5899
5879 5878 5878 5875 5875 5873 5872 5871 5870 5869 5868 5867 5865 5864 5863 5863 5863 5863 5862 5862 5862 5863 5863 5863 5864 5864 5865 5866 5868 5869 5870 5871 5872 5874 5876 5878 5879 5882 5885 5887 5890 5893 5895
5876 5874 5874 5872 5871 5870 5868 5867 5866 5865 5864 5862 5861 5860 5859 5858 5858 5857 5857 5857 5858 5858 5858 5858 5858 5859 5860 5862 5863 5864 5865 5867 5868 5869 5871 5873 5875 5877 5880 5883 5885 5888 5891
5873 5871 5871 5869 5868 5866 5864 5863 5862 5861 5859 5858 5857 5856 5855 5854 5854 5853 5853 5853 5853 5853 5853 5853 5853 5854 5855 5856 5857 5858 5859 5861 5863 5864 5866 5868 5869 5872 5875 5877 5880 5883 5886
5869 5868 5867 5866 5864 5862 5861 5859 5858 5856 5855 5854 5853 5852 5851 5850 5849 5849 5848 5848 5847 5847 5848 5848 5848 5848 5849 5850 5851 5852 5854 5855 5857 5859 5860 5862 5864 5866 5869 5871 5874 5877 5880
5865 5864 5863 5862 5861 5859 5857 5856 5855 5853 5852 5851 5849 5848 5847 5846 5845 5844 5843 5843 5842 5842 5842 5842 5843 5843 5843 5843 5844 5846 5847 5849 5851 5852 5854 5855 5857 5860 5862 5865 5868 5870 5874
5862 5861 5860 5859 5857 5856 5854 5853 5851 5850 5849 5847 5845 5844 5843 5841 5840 5839 5838 5837 5837 5836 5836 5836 5836 5836 5837 5837 5838 5839 5841 5842 5844 5845 5847 5849 5851 5853 5855 5858 5861 5864 5867
5859 5858 5857 5856 5854 5853 5851 5849 5848 5846 5845 5843 5841 5840 5838 5837 5835 5834 5833 5832 5831 5830 5830 5830 5830 5830 5830 5831 5832 5833 5834 5835 5836 5838 5840 5841 5844 5845 5848 5850 5853 5856 5860
5856 5855 5854 5853 5851 5850 5847 5845 5844 5842 5840 5839 5837 5835 5833 5831 5830 5828 5827 5826 5825 5824 5823 5823 5822 5822 5823 5823 5824 5825 5826 5828 5829 5830 5832 5834 5836 5838 5840 5843 5846 5849 5852
5853 5852 5851 5850 5848 5846 5844 5842 5840 5838 5836 5834 5832 5830 5828 5826 5824 5822 5820 5819 5818 5817 5816 5815 5815 5815 5815 5815 5815 5817 5818 5819 5820 5822 5824 5826 5827 5830 5832 5835 5838 5841 5844
5850 5849 5848 5847 5845 5843 5841 5839 5837 5835 5833 5830 5827 5825 5823 5821 5818 5816 5814 5813 5811 5809 5808 5807 5806 5806 5806 5806 5806 5807 5808 5809 5811 5813 5815 5817 5819 5821 5824 5826 5829 5833 5836
5848 5847 5846 5844 5843 5840 5838 5836 5833 5830 5828 5825 5822 5820 5817 5815 5812 5810 5808 5806 5803 5802 5800 5799 5798 5797 5797 5797 5797 5798 5799 5800 5801 5803 5805 5807 5810 5812 5814 5817 5820 5824 5828
5846 5845 5844 5842 5840 5837 5835 5832 5829 5826 5823 5820 5817 5814 5811 5809 5806 5804 5801 5799 5796 5794 5792 5790 5789 5788 5787 5787 5787 5788 5789 5790 5791 5793 5795 5797 5799 5802 5805 5807 5811 5815 5818
Wind_Speed
5 4 4 4 4 5 5 6 6 7 7 7 7 7 7 6 5 5 4 3 2 2 2 2 2 2 3 3 4 4 4 4 4 4 5 5 6 6 7 7 8 9 9
6 6 6 6 6 6 6 6 7 8 7 8 8 8 8 7 7 6 6 5 4 4 3 2 2 2 1 1 2 2 2 3 3 3 4 4 5 6 6 7 8 8 9
7 7 7 7 7 7 7 7 7 8 8 8 8 9 9 8 8 8 8 7 7 6 5 4 3 3 2 2 2 1 1 1 1 2 3 3 4 5 6 6 7 7 8
8 8 8 8 8 8 8 8 8 9 9 10 10 10 10 10 9 9 9 9 8 8 7 6 5 5 4 4 3 3 3 2 1 0 1 2 3 4 5 6 6 7 7
10 9 8 9 9 9 9 10 10 10 11 11 11 11 11 11 11 10 10 10 10 9 9 9 8 7 7 6 6 5 5 4 3 2 1 2 2 3 4 5 6 6 6
10 10 10 11 11 11 11 12 12 12 12 12 12 12 13 13 13 12 12 11 11 11 11 10 10 9 9 8 8 7 7 6 5 4 3 3 3 3 4 5 5 6 6
10 12 12 13 12 12 13 13 13 14 14 14 14 15 14 15 15 14 13 13 13 13 13 12 12 11 10 10 10 10 9 8 7 7 6 5 4 4 5 5 5 5 6
11 13 13 14 14 14 15 15 15 15 15 16 16 17 16 16 16 16 16 15 15 14 14 14 13 13 12 12 11 11 11 10 10 9 8 7 6 6 6 6 6 6 6
14 15 15 16 16 16 17 17 17 17 17 18 18 18 18 18 18 17 17 17 17 16 15 15 15 14 14 14 14 13 13 12 12 12 11 10 9 8 8 8 7 7 7
16 17 17 17 18 18 19 19 19 20 20 20 19 20 20 20 20 20 20 20 19 18 17 17 17 17 16 15 15 15 15 15 14 14 13 12 12 11 10 10 9 9 9
19 18 19 19 19 19 20 21 21 21 22 21 22 22 22 22 22 22 22 21 20 18 18 19 18 18 17 17 16 16 16 17 17 16 15 15 15 14 13 13 12 11 11
20 20 20 21 21 21 21 22 23 23 23 23 24 24 24 24 23 23 23 21 20 19 19 19 20 19 19 18 18 18 18 19 18 18 18 18 18 17 16 15 15 14 13
21 22 22 22 23 23 23 23 23 24 23 22 23 24 25 24 23 23 21 20 21 21 20 20 21 21 20 20 19 20 19 21 21 20 19 20 21 20 19 18 18 17 16
22 23 23 24 24 24 23 23 22 22 22 23 22 21 22 22 23 22 21 20 19 19 20 20 21 21 21 21 20 21 20 20 22 22 21 22 22 22 22 21 21 20 19
22 23 23 23 24 23 23 21 21 22 23 23 22 21 21 21 21 21 21 20 20 19 19 20 21 22 22 22 21 21 21 21 22 23 23 23 24 24 24 24 24 23 23
24 23 24 24 23 23 22 21 20 21 21 22 21 21 21 20 21 21 20 20 21 21 21 22 22 22 23 23 22 22 22 22 22 23 23 24 25 25 24 26 26 26 25
23 24 24 23 22 22 22 20 20 21 21 21 21 20 21 21 20 20 21 21 21 22 22 22 22 21 22 22 22 22 22 23 23 24 23 24 25 25 26 26 27 29 28
23 23 22 21 21 22 21 19 19 20 21 20 20 20 20 21 22 22 22 23 23 24 23 23 22 22 22 22 22 23 23 23 23 24 25 25 26 26 27 28 28 29 31
20 20 20 20 20 21 19 18 17 18 19 19 20 20 21 21 22 22 22 22 23 23 23 23 23 24 24 24 24 24 25 25 25 25 26 26 26 27 28 29 29 30 32
17 18 19 19 20 19 17 17 17 18 19 19 20 20 21 22 23 23 23 23 23 24 24 25 25 25 26 26 26 26 26 27 27 27 27 27 28 29 30 30 31 32 33
17 17 17 17 17 16 16 17 18 19 20 20 21 21 21 22 23 24 24 25 25 25 26 27 27 27 28 28 28 28 29 29 29 29 30 29 29 30 31 31 31 32 34
14 14 14 15 15 15 16 18 19 21 22 22 22 22 23 23 23 24 25 26 26 27 27 28 28 29 30 31 31 31 31 31 32 32 32 32 31 31 32 32 32 33 34
11 12 13 14 14 16 17 18 20 21 22 22 22 23 23 23 24 25 25 26 27 28 28 29 29 30 31 32 32 33 33 34 33 33 34 34 34 34 34 34 34 34 34
11 12 13 14 15 17 18 20 21 21 22 23 23 24 24 24 25 25 26 26 28 29 29 30 30 31 31 31 32 33 34 34 35 35 35 36 36 36 36 36 36 35 35
12 12 13 15 17 18 19 21 22 23 24 24 24 24 25 25 25 26 26 27 29 30 30 31 31 32 32 32 33 34 34 34 35 36 36 36 37 37 37 37 38 38 37
13 13 15 16 18 19 20 22 23 24 24 24 25 25 25 26 26 26 27 28 29 30 30 31 31 32 33 33 34 35 35 35 36 36 36 36 37 37 38 38 39 39 39
Wind_Direction
326 322 323 328 334 337 338 333 328 327 323 318 316 312 310 310 309 309 310 314 323 343 9 33 42 50 56 56 58 61 62 62 63 66 73 76 79 85 93 98 102 104 108
313 314 314 315 319 324 327 325 323 323 319 316 312 309 304 302 301 302 300 300 300 303 308 319 331 345 9 25 32 46 55 58 64 73 76 80 87 94 100 103 105 108 111
310 312 315 319 318 319 321 320 321 321 318 315 311 307 303 299 296 294 294 292 293 292 292 293 294 296 301 303 308 317 326 19 60 83 85 87 96 105 107 111 113 114 114
309 309 313 320 321 322 323 321 319 317 316 313 310 306 303 298 294 290 288 287 288 289 289 287 284 282 285 285 282 281 275 274 279 166 124 117 111 115 116 120 124 119 122
311 313 317 321 320 319 319 317 313 313 314 311 308 306 303 299 296 291 287 286 287 288 290 289 284 279 278 275 271 269 268 262 259 246 212 168 146 134 129 128 131 131 131
315 318 321 324 319 318 316 314 312 309 309 310 310 307 302 297 293 289 286 284 285 287 287 287 285 279 275 272 269 266 265 258 250 245 235 215 189 170 158 149 143 142 144
323 321 322 323 321 318 318 317 312 310 308 305 306 304 301 297 290 285 283 280 281 281 283 283 281 278 275 271 267 265 262 258 248 243 238 229 215 201 189 180 171 165 163
321 318 318 318 316 315 313 312 311 310 305 302 301 300 296 293 289 283 280 278 280 280 279 279 276 274 272 268 266 264 259 257 250 244 240 233 226 218 210 203 196 191 184
314 314 316 315 313 311 310 309 307 306 302 299 297 295 292 290 287 283 280 275 277 279 277 277 274 272 270 267 264 262 259 255 251 244 240 236 233 229 222 216 212 208 204
308 311 312 312 311 309 307 306 304 300 299 296 295 292 289 287 284 278 277 273 273 275 274 273 272 270 268 267 263 260 258 255 252 246 242 240 238 234 230 225 221 217 214
304 307 308 310 309 306 304 302 300 298 296 293 293 291 287 284 282 277 275 271 271 271 269 269 269 267 266 264 261 260 258 256 253 249 243 243 239 235 233 231 227 223 221
300 305 307 307 305 303 302 300 297 295 294 291 288 287 285 283 282 279 275 271 270 271 267 265 264 264 263 262 262 259 257 256 254 250 244 243 241 237 234 233 230 227 225
298 303 305 306 303 302 301 299 296 296 297 296 291 285 284 281 282 282 278 276 272 270 267 265 262 261 260 261 262 260 259 257 254 251 247 245 242 239 236 235 234 231 228
295 300 302 302 302 302 302 300 298 297 300 299 295 292 287 286 283 282 279 277 275 272 271 271 266 262 260 261 262 260 260 259 255 253 248 245 241 240 238 236 236 234 231
295 298 300 302 303 302 302 300 298 298 300 299 295 292 290 290 284 283 281 279 274 271 272 273 269 268 264 265 266 263 261 257 259 255 247 245 243 241 239 238 238 235 233
295 298 302 303 304 303 302 300 297 298 300 299 295 293 292 292 288 285 283 282 276 273 271 273 271 271 267 267 267 266 262 260 259 257 250 244 244 244 242 240 239 238 236
294 296 298 302 302 303 303 300 299 296 296 297 294 292 293 293 293 290 285 282 279 277 275 274 271 268 268 267 266 266 262 259 256 254 252 247 244 244 243 241 240 238 237
293 294 298 301 302 304 302 299 299 299 298 298 296 294 294 293 293 291 288 284 279 277 277 275 273 270 269 265 264 263 260 259 256 254 253 250 247 245 244 242 241 239 237
290 293 298 300 303 303 302 300 300 302 301 301 301 300 296 295 294 291 290 287 282 279 276 274 273 271 270 267 263 261 259 258 257 254 253 252 250 246 244 243 242 240 237
290 293 298 301 304 303 302 302 304 304 304 303 303 303 299 297 296 291 290 288 283 280 277 275 273 272 269 267 264 262 260 257 256 255 255 254 252 248 245 245 244 242 238
291 292 298 302 306 306 307 307 307 306 306 305 304 303 300 297 296 293 292 288 285 282 279 276 275 273 270 267 266 264 262 261 258 256 256 255 253 249 246 246 245 243 239
296 300 305 310 311 313 314 312 310 310 309 308 306 304 303 300 297 294 292 289 286 283 280 278 275 273 271 269 266 264 263 262 259 257 256 256 254 251 248 246 244 242 240
306 310 314 317 318 321 321 318 315 313 311 310 308 306 304 302 299 297 294 291 288 285 283 280 277 274 272 270 267 265 263 262 261 258 256 255 254 252 249 247 245 242 240
324 324 327 328 325 325 324 321 319 318 316 314 312 310 307 305 302 299 297 294 291 288 285 282 279 276 273 270 269 267 264 262 260 258 257 255 253 253 251 248 245 243 241
329 330 330 331 330 329 326 324 323 321 319 317 315 313 311 309 306 304 301 297 293 290 287 284 280 277 275 272 269 267 265 262 260 259 257 255 253 252 250 248 245 244 242
335 333 335 333 332 331 329 327 326 325 323 320 318 316 314 312 309 307 304 301 297 293 290 286 282 279 276 274 271 269 266 262 260 259 257 255 253 251 250 248 246 245 243